Regional Weather Roundup
Issued by NWS Charleston, SC

Home | Current Version | Previous Version | Text Only | Print | Product List | Glossary On
Versions: 1 2 3 4 5 6 7 8 9 10 11 12 13 14 15 16 17 18 19 20 21 22 23 24 25 26 27 28 29 30 31 32 33 34 35 36 37 38 39 40 41 42 43 44 45 46 47 48 49 50
000
ASUS42 KCHS 310328
RWRCHS

REGIONAL WEATHER ROUNDUP
NATIONAL WEATHER SERVICE CHARLESTON SC
1100 PM EDT MON MAY 30 2016

NOTE: "FAIR" INDICATES FEW OR NO CLOUDS BELOW 12,000 FEET WITH NO
SIGNIFICANT WEATHER AND/OR OBSTRUCTIONS TO VISIBILITY.

NOT ALL STATIONS ARE QUALITY CONTROLLED. USE DATA WITH CAUTION...
ESPECIALLY DEWPOINT OBSERVATIONS.

SCZ027-030-031-034>040-042>050-310400-
...SOUTHEAST SOUTH CAROLINA...

CITY           SKY/WX    TMP DP  RH WIND       PRES   REMARKS
N CHARLESTON   CLOUDY    72  70  93 NW5       29.90S
WATERFRONT PRK   N/A     72  71  97 VRB3      29.88R
MOUNT PLEASANT MOCLDY    72  72 100 NW7       29.89S FOG
JOHNS ISLAND   CLOUDY    73  72  94 W5        29.90S
PINOPOLIS        N/A     75  72  88 NE8       29.84
MONCKS CORNER  CLOUDY    68  66  94 CALM      29.91R
SUMMERVILLE    FAIR      70  70 100 CALM      29.92S
BEAUFORT MCAS  CLOUDY    74  71  91 CALM      29.93R
BEAUFORT ARPT  CLOUDY    73  70  88 CALM      29.93R
HILTON HEAD IS DRIZZLE   73  73 100 CALM      29.94R
WALTERBORO     CLOUDY    73  73 100 CALM      29.93S
ALLENDALE      FAIR      73  72  94 CALM      29.93S FOG

...SOUTHERN MIDLANDS AND PEE DEE...

CITY           SKY/WX    TMP DP  RH WIND       PRES   REMARKS
GEORGETOWN     LGT RAIN  72  70  94 NE3       29.90F
KINGSTREE      MOCLDY    70  68  94 N3        29.91F
ORANGEBURG     CLOUDY    72  70  93 CALM      29.93R
BARNWELL       FAIR      73  73 100 CALM      29.94S
AIKEN          FAIR      70  68  94 CALM      29.98S
MANNING        FAIR      68  68 100 CALM      29.91F
COLUMBIA       PTCLDY    74  70  87 CALM      29.92S
SUMTER         NOT AVBL
FLORENCE       MOCLDY    73  71  93 N3        29.93R
MYRTLE BEACH   PTCLDY    73  64  73 E5        29.92F
N MYRTLE BEACH MOCLDY    75  69  81 E5        29.91S

$$

GAZ063-065-086>088-099>101-113>116-118-119-134>141-150-310400-
...SOUTHEAST GEORGIA...

CITY           SKY/WX    TMP DP  RH WIND       PRES   REMARKS
SAVANNAH ARPT  MOCLDY    76  69  79 S7        29.93R
HUNTER AAF     NOT AVBL
FORT STEWART   NOT AVBL
STATESBORO     CLEAR     74  71  91 CALM      29.93S
SYLVANIA       CLEAR     74  70  88 CALM      29.94S
CLAXTON        FAIR      71  71  98 CALM      29.92F

...CSRA...CENTRAL AND FAR SOUTHEAST GEORGIA...

CITY           SKY/WX    TMP DP  RH WIND       PRES   REMARKS
THOMSON        CLOUDY    73  71  92 CALM      29.98F
AUGUSTA-BUSH   PTCLDY    69  67  93 E5        29.92R
AUGUSTA-DANIEL CLEAR     81  63  54 NE6       29.94R
SWAINSBORO     FAIR      73  68  83 CALM      29.94S
VIDALIA        CLEAR     75  66  73 CALM      29.93S
EASTMAN        FAIR      71  69  90 CALM      29.95S
HAZLEHURST     FAIR      74  66  75 CALM      29.92S
ALMA           CLEAR     70  67  90 CALM      29.93R
WAYCROSS       CLEAR     72  66  80 CALM      29.92F
JESUP          FAIR      68  63  83 CALM      29.93S
BAXLEY         FAIR      73  68  83 CALM      29.92F
BRUNSWICK      CLEAR     82  75  78 S3        29.94S
SAINT SIMONS   CLEAR     79  73  82 S8        29.93S

$$

SCZ027-028-034-036>038-045-046-048>050-GAZ119-141-310400-
...LAKE AND SUPPLEMENTAL COASTAL OBSERVATIONS...

STATION/POSITION TIME  TEMP    WIND        PRES    WAVE   SWELL
                       AIR SEA DIR/SP/G            HT/PER HT/PER/DIR
                 (UTC) (F)     (DEG/KT/KT) (MB)    (FT/S) (FT/S/D)
WINYAH BAY       0245   74      90/  7     1012.0R
LAKE MURRAY      0300   74        CALM     1013.2R
ACE BASIN NERRS  0200   72     300/  1     1013.0R
FORT PULASKI     0300      76                N/A
SAPELO ISLAND    0300   78     160/  7     1013.0S

$$

ANZ835-935-AMZ111-154-330-350-352-354-370-450-454-472-310400-
...C-MAN AND BUOY OBSERVATIONS...

STATION/POSITION TIME  TEMP    WIND        PRES    WAVE   SWELL
                       AIR SEA DIR/SP/G            HT/PER HT/PER/DIR
                 (UTC) (F)     (DEG/KT/KT) (MB)    (FT/S) (FT/S/D)
BUOY 41004       0250   74 77  230/  8/ 12 1011.9R   4/ 8   3/ 8
BUOY 41008       0250   78 78  170/ 12/ 14 1013.4F   2/ 8   2/ 90/ 8
FOLLY BEACH CMAN 0300   71     290/  4/  6 1012.6S
CAPERS NEARSHORE 0308   73 76  310/ 16/ 19 1011.5F
FRIPP NEARSHORE  0308   72 76  150/  2/  4 1012.9S


STATION/POSITION TIME  TEMP    WIND        PRES    WAVE   SWELL
                       AIR SEA DIR/SP/G            HT/PER HT/PER/DIR
                 (UTC) (F)     (DEG/KT/KT) (MB)    (FT/S) (FT/S/D)
5E ST. MARYS GA  0301      79                N/A     3/ 8
FRYING PAN BUOY  0300   77 78  200/  2/  4 1012.8S
BUOY 41025       0250   77 81  220/ 10/ 12 1013.8S   5/ 8   5/150/ 8
CAPE LOOKOUT NC  0300   74     100/  4/  5 1013.7S
BUOY 41002       0250   76 76  160/ 12/ 14 1015.8R   5/ 8   5/100/ 8
BUOY 41010       0220   80 80  190/ 10/ 12 1015.7R
ST AUGUSTINE FL  0300   73 81  230/  9/ 10 1015.1F


$$




USA.gov is the U.S. government's official web portal to all federal, state and local government web resources and services.